Portage, MI

5:49 PM EDT on August 25, 2016 (GMT -0400)
Kalamazoo-Battle Creek International

Weather History for KAZO - January, 2013

Change the Weather History Date:

Friday, January 18, 2013

  Actual Average Record
Temperature  
Mean Temperature 30 °F 24 °F  
Max Temperature 39 °F 31 °F 56 °F (1952)
Min Temperature 20 °F 18 °F -5 °F (1997)
Degree Days  
Heating Degree Days 35 41  
Month to date heating degree days 630 730  
Since 1 July heating degree days 2932 3181  
Cooling Degree Days 0 0  
Month to date cooling degree days 0 0  
Year to date cooling degree days 0 0  
Moisture  
Dew Point 19 °F    
Average Humidity 67    
Maximum Humidity 81    
Minimum Humidity 53    
Precipitation  
Precipitation 0.00 in 0.05 in 0.50 in (1988)
Month to date precipitation 1.54 1.02  
Year to date precipitation 1.54 1.02  
Sea Level Pressure  
Sea Level Pressure 30.24 in    
Wind  
Wind Speed 14 mph (SSW)    
Max Wind Speed 29 mph    
Max Gust Speed 37 mph    
Visibility 10 miles    
Events      
T = Trace of Precipitation, MM = Missing Value Source: NWS Daily Summary

Daily Weather History Graph

Daily Weather History Graph

Search for Another Location

Airport or City:

Trip Planner

Search our weather history database for the weather conditions in past years. The results will help you decide how hot, cold, wet, or windy it might be!

Date:

Astronomy

Jan. 18, 2013 Rise Set
Actual Time 8:06 AM EST 5:39 PM EST
Civil Twilight 7:35 AM EST 6:09 PM EST
Nautical Twilight 7:01 AM EST 6:44 PM EST
Astronomical Twilight 6:28 AM EST 7:17 PM EST
Moon 11:35 AM EST (1/18) 12:37 AM EST (1/18)
Length of Visible Light 10h 33m
Length of Day
9h 32m
Waxing Crescent, 47% of the Moon is Illuminated
Jan 18
Waxing Crescent
Jan 18
First Quarter
Jan 26
Full
Feb 3
Last Quarter
Feb 10
New

Hourly Weather History & Observations

Time (EST) Temp. Windchill Dew Point Humidity Pressure Visibility Wind Dir Wind Speed Gust Speed Precip Events Conditions
12:53 AM 24.1 °F 18.2 °F 12.9 °F 62% 30.37 in 10.0 mi North 4.6 mph - N/A   Overcast
1:53 AM 24.1 °F 15.2 °F 14.0 °F 65% 30.40 in 10.0 mi NW 8.1 mph - N/A   Overcast
2:53 AM 24.1 °F 17.0 °F 12.9 °F 62% 30.43 in 10.0 mi NW 5.8 mph - N/A   Overcast
3:53 AM 23.0 °F 18.4 °F 12.9 °F 65% 30.42 in 10.0 mi NW 3.5 mph - N/A   Overcast
4:53 AM 21.9 °F - 14.0 °F 72% 30.42 in 10.0 mi Calm Calm - N/A   Mostly Cloudy
5:53 AM 21.0 °F - 14.0 °F 74% 30.43 in 10.0 mi Calm Calm - N/A   Scattered Clouds
6:53 AM 21.9 °F - 15.1 °F 75% 30.43 in 10.0 mi Calm Calm - N/A   Mostly Cloudy
7:53 AM 21.0 °F 14.6 °F 15.1 °F 78% 30.42 in 10.0 mi SSE 4.6 mph - N/A   Overcast
8:53 AM 23.0 °F 13.9 °F 17.1 °F 78% 30.41 in 10.0 mi South 8.1 mph - N/A   Mostly Cloudy
9:53 AM 25.0 °F 14.2 °F 17.1 °F 72% 30.41 in 10.0 mi South 11.5 mph - N/A   Overcast
10:53 AM 26.6 °F 14.7 °F 17.6 °F 69% 30.36 in 10.0 mi South 15.0 mph - N/A   Mostly Cloudy
11:53 AM 30.0 °F 16.9 °F 16.0 °F 56% 30.35 in 10.0 mi South 21.9 mph - N/A   Scattered Clouds
12:53 PM 30.9 °F 17.8 °F 19.0 °F 61% 30.28 in 10.0 mi South 23.0 mph 29.9 mph N/A   Overcast
1:53 PM 33.1 °F 21.9 °F 21.0 °F 61% 30.22 in 10.0 mi South 18.4 mph 26.5 mph N/A   Mostly Cloudy
2:53 PM 34.0 °F 21.5 °F 21.9 °F 61% 30.18 in 10.0 mi South 24.2 mph 31.1 mph N/A   Partly Cloudy
3:53 PM 36.0 °F 24.7 °F 21.9 °F 57% 30.13 in 10.0 mi South 21.9 mph 29.9 mph N/A   Scattered Clouds
4:53 PM 36.0 °F 24.7 °F 23.0 °F 59% 30.09 in 10.0 mi South 21.9 mph 27.6 mph N/A   Clear
5:53 PM 35.1 °F 23.3 °F 23.0 °F 61% 30.06 in 10.0 mi South 23.0 mph 28.8 mph N/A   Clear
6:53 PM 35.1 °F 22.7 °F 21.9 °F 59% 30.02 in 10.0 mi South 25.3 mph 34.5 mph N/A   Clear
7:53 PM 36.0 °F 24.2 °F 21.9 °F 57% 30.03 in 10.0 mi SSW 24.2 mph 31.1 mph N/A   Clear
8:53 PM 36.0 °F 26.0 °F 21.9 °F 57% 30.02 in 10.0 mi SSW 17.3 mph 25.3 mph N/A   Clear
9:53 PM 36.0 °F 26.7 °F 23.0 °F 59% 30.01 in 10.0 mi SSW 15.0 mph 26.5 mph N/A   Clear
10:53 PM 37.0 °F 28.5 °F 24.1 °F 59% 29.99 in 10.0 mi SSW 13.8 mph 24.2 mph N/A   Clear
11:53 PM 39.0 °F 29.9 °F 25.0 °F 57% 29.96 in 10.0 mi SSW 17.3 mph 28.8 mph N/A   Clear